Theta_e
319 320 321 317 318 316 316 316 313 314 314 310 310 313 315 312 318 321 308 308 311 318 323 325 327 329 330 332 333 335 335 335 336 336 337 336 336 337 337 337 337 336 337 338 339 340 339 336 335
320 320 318 310 317 317 316 312 313 313 311 308 309 309 312 314 308 308 308 305 308 316 318 317 319 321 322 324 327 331 331 331 331 332 332 332 332 333 335 335 335 335 335 337 338 338 338 337 334
319 318 317 313 312 316 316 312 311 310 307 309 310 307 309 311 307 305 303 302 305 312 313 312 314 315 316 317 321 323 324 325 326 326 328 329 329 329 331 332 332 332 333 335 336 337 336 335 334
317 314 308 314 314 312 313 311 310 310 309 308 308 311 306 305 306 303 302 301 302 303 305 307 308 309 310 310 311 312 315 316 317 319 320 320 322 324 323 325 327 330 331 332 334 334 334 334 334
312 309 313 312 313 311 309 310 309 311 310 309 308 310 307 303 303 301 301 300 300 298 298 301 304 305 306 307 308 309 309 307 307 308 310 311 317 314 314 316 319 320 322 324 327 330 332 332 331
314 308 315 315 312 311 310 309 309 309 308 307 308 307 306 303 300 299 299 299 298 297 297 296 296 298 300 303 304 304 305 304 302 300 299 300 304 301 302 305 311 313 316 321 323 324 328 330 330
314 312 313 312 312 312 311 306 308 308 308 309 305 308 304 301 300 299 299 298 297 296 296 295 295 295 295 295 296 297 297 298 299 300 297 296 296 296 297 298 299 303 307 314 319 320 323 326 328
308 311 310 309 312 314 309 308 306 309 309 303 303 308 306 302 300 299 298 298 297 295 294 295 295 295 295 295 294 294 294 295 295 295 295 295 295 295 295 295 295 299 299 300 310 314 319 322 324
308 314 314 312 311 313 307 310 304 302 304 302 302 302 301 302 299 298 297 295 295 294 294 294 294 294 294 294 294 294 294 294 294 294 294 294 294 294 294 294 294 294 294 296 303 300 304 313 318
310 311 314 310 308 312 309 309 307 306 304 304 300 298 298 300 297 296 295 294 294 294 293 293 293 293 293 293 293 293 293 293 293 293 293 293 293 293 293 293 294 294 294 294 294 295 295 297 301
309 310 312 312 310 310 311 309 304 306 307 306 305 299 297 297 296 295 294 294 294 293 293 293 293 293 293 293 293 293 293 293 293 293 292 292 292 292 292 293 293 293 293 293 293 293 294 294 295
314 311 311 312 312 310 311 305 307 304 309 302 301 299 297 297 295 294 294 294 293 293 293 293 292 293 293 293 293 292 292 292 292 292 292 291 291 292 291 292 292 292 292 292 292 292 292 293 293
312 312 312 310 310 310 306 308 308 304 303 299 297 297 297 297 295 295 295 294 293 293 292 292 292 292 292 292 292 292 292 291 291 290 290 290 290 290 290 290 291 290 291 291 291 291 292 293 293
310 311 311 309 310 309 310 308 307 305 296 297 296 297 296 296 294 294 293 293 293 293 293 292 292 292 291 291 291 291 291 290 289 289 289 288 288 288 289 289 289 289 289 289 290 290 291 291 293
309 311 309 308 309 310 307 309 307 304 297 298 296 295 295 295 294 293 293 293 293 293 292 292 291 291 291 291 290 290 290 289 289 288 288 287 287 287 287 288 288 288 288 288 288 289 289 292 291
311 309 312 311 308 309 308 313 309 300 298 300 296 294 294 294 293 293 294 293 292 292 292 292 291 291 290 290 290 289 289 289 288 288 287 286 285 286 286 287 287 287 287 286 286 286 287 289 290
309 315 312 311 306 309 307 312 308 299 297 300 297 295 294 294 291 293 293 292 292 292 292 291 291 290 290 290 289 289 289 288 288 287 286 286 286 285 285 285 286 286 285 285 285 285 285 286 287
312 313 311 310 309 307 308 308 309 303 299 301 299 296 295 294 294 292 292 292 291 291 291 291 290 290 290 289 289 288 288 288 287 286 287 286 286 285 284 284 284 284 284 284 284 284 284 285 287
312 312 312 308 305 307 307 307 309 308 301 302 300 296 295 295 295 291 292 291 290 291 290 290 290 290 289 289 288 287 287 286 286 286 286 285 284 283 283 284 284 285 284 283 283 283 284 286 286
309 310 309 306 305 304 305 307 307 307 307 308 304 299 297 295 291 289 289 289 289 290 290 290 289 289 289 288 287 286 285 285 286 285 285 284 283 283 284 284 283 283 282 282 282 282 283 282 283
307 308 308 309 304 302 301 305 303 303 303 303 302 301 298 296 293 290 289 288 289 289 290 289 289 288 288 287 286 285 284 284 284 285 284 283 283 283 283 283 282 282 281 281 281 281 280 281 282
311 306 307 307 306 309 303 311 305 305 305 304 303 299 299 296 294 291 289 288 287 289 290 289 288 287 287 286 286 285 283 282 283 282 281 282 282 282 281 281 280 280 280 280 280 280 279 279 280
310 304 304 304 304 302 304 304 307 299 304 306 305 300 298 295 293 291 290 289 287 289 289 289 288 287 286 285 285 284 282 281 281 280 280 280 281 281 281 280 280 279 279 279 279 279 278 278 278
302 303 301 297 299 306 307 307 306 303 304 304 302 301 298 294 291 291 290 289 287 289 289 288 288 286 285 285 284 282 281 281 280 279 278 278 278 279 280 279 278 278 278 278 278 278 278 277 277
304 308 311 310 307 312 299 301 308 304 301 303 304 302 296 293 289 289 289 288 288 287 288 287 287 286 285 284 283 281 280 279 278 278 277 277 278 278 277 277 277 277 277 277 277 277 277 277 278
304 308 312 310 308 308 297 306 308 301 303 299 296 295 292 292 289 289 288 288 288 287 287 287 286 285 284 283 282 281 279 279 278 277 276 276 276 275 275 275 275 276 276 276 276 276 276 276 276
304 306 306 305 288 303 308 306 304 302 300 297 295 292 292 292 288 288 288 288 288 287 287 287 286 285 284 282 281 280 279 278 277 277 276 275 275 274 274 274 274 274 275 275 275 275 275 275 275
302 301 306 305 310 305 308 308 309 306 305 302 299 296 295 292 288 288 288 287 287 287 287 286 286 285 283 281 280 279 278 277 277 276 275 275 275 274 273 273 273 274 274 274 274 274 274 274 274
301 302 301 304 305 307 307 309 304 305 304 303 303 298 295 292 289 288 287 287 286 286 286 285 284 282 281 279 278 278 277 277 276 275 276 274 273 273 272 272 272 272 273 273 272 273 273 273 273
300 304 304 308 308 302 304 310 304 306 303 302 302 298 294 291 289 287 286 286 285 285 284 283 282 281 280 279 278 277 276 275 275 275 274 273 272 272 271 271 271 271 271 271 271 271 271 271 272
Wind_Speed
4 4 3 3 3 4 1 3 0 4 3 0 2 3 5 3 3 2 8 4 3 6 11 11 11 14 8 7 10 12 11 13 14 14 14 12 12 10 10 11 12 11 11 12 13 13 12 14 15
5 4 3 2 4 3 2 2 4 4 5 7 5 3 2 2 1 4 5 3 6 10 10 13 15 16 16 14 9 8 5 5 7 10 11 11 11 13 14 12 12 12 12 13 13 14 14 15 15
4 1 3 4 3 3 4 4 5 2 7 3 4 3 4 5 3 5 5 7 9 10 10 12 15 16 16 15 9 7 6 8 6 8 7 8 12 13 15 15 13 13 14 14 14 15 16 17 17
3 3 3 4 2 3 2 5 4 7 2 2 3 4 1 1 6 8 11 10 11 12 10 12 13 14 15 15 15 14 14 10 8 7 12 11 9 12 16 13 13 16 15 15 14 15 16 17 18
4 3 3 3 2 2 3 4 8 7 4 4 4 5 3 2 11 14 14 12 12 12 11 13 14 15 15 16 16 16 15 15 14 13 11 10 13 12 13 11 14 15 14 14 13 14 15 16 19
3 3 3 2 3 3 3 5 7 5 4 4 3 7 5 10 17 15 14 13 12 12 12 12 13 14 16 17 17 17 16 15 15 12 10 9 9 10 11 11 11 14 15 12 13 16 14 14 16
5 3 3 3 3 2 5 8 5 7 7 6 6 8 2 11 17 16 14 12 11 11 11 12 12 13 13 13 15 15 15 15 16 16 15 14 12 12 12 12 13 13 13 14 14 14 17 17 16
4 4 3 3 4 5 5 3 2 3 4 3 3 6 4 13 20 17 14 12 11 10 10 10 10 10 12 13 16 16 16 15 15 15 15 16 15 16 16 16 16 16 15 14 13 15 15 16 17
3 4 1 4 5 3 4 3 1 1 4 3 5 3 2 23 24 19 16 13 11 10 9 8 9 11 12 13 15 15 16 15 15 16 16 17 18 19 20 19 19 19 18 16 15 15 17 18 19
4 3 6 4 4 2 4 4 6 3 2 4 4 3 8 30 27 24 20 16 13 11 9 8 8 10 11 13 13 14 15 15 15 16 16 17 19 19 18 19 19 19 20 19 19 20 20 19 20
2 4 3 3 4 3 4 3 5 6 5 10 10 9 15 18 22 18 17 16 15 12 9 7 7 8 9 10 10 11 11 13 14 14 16 17 19 20 21 21 21 22 22 23 23 23 23 23 23
1 2 3 3 3 4 4 6 4 8 5 0 6 16 18 15 18 21 22 21 19 14 10 8 7 6 7 7 8 9 10 12 13 14 14 17 18 19 21 21 23 23 23 25 26 26 25 25 25
3 2 2 4 4 3 4 6 6 9 8 1 7 14 16 16 17 23 23 20 19 16 13 10 7 5 5 4 6 7 9 11 11 11 11 15 17 18 20 20 21 22 23 23 24 26 25 26 26
3 2 5 3 3 3 4 3 1 2 5 6 9 14 14 16 20 22 23 22 22 19 15 11 7 5 4 4 5 6 7 8 8 10 12 14 16 18 19 20 21 22 23 24 22 22 24 26 26
2 3 5 4 2 4 5 7 10 4 4 7 10 11 12 17 22 24 30 28 25 21 17 13 9 6 4 3 3 3 4 6 8 9 10 12 15 17 19 20 21 22 24 23 24 25 23 21 24
1 3 3 2 4 2 5 10 7 6 7 11 11 11 14 16 20 25 29 27 23 22 19 16 12 8 5 3 1 1 3 5 7 10 10 11 13 16 19 20 20 22 23 21 21 21 21 21 21
5 3 4 7 7 3 6 10 5 5 7 10 11 14 14 12 14 29 31 29 27 25 22 18 14 11 8 6 3 4 5 6 7 9 10 13 14 17 19 20 20 23 23 21 20 19 19 20 22
6 4 5 6 4 4 5 16 17 7 9 17 14 13 14 16 21 26 32 31 28 27 23 19 16 12 9 7 6 6 7 7 8 10 11 14 16 16 18 20 21 23 22 21 21 21 20 19 22
3 4 7 5 4 4 10 15 19 19 9 15 15 12 16 20 17 24 33 33 29 27 25 21 19 15 13 12 10 8 8 8 7 11 11 15 17 18 21 22 23 24 24 24 22 20 19 17 20
4 4 7 7 1 6 9 17 17 16 20 18 18 13 16 12 11 20 28 33 33 32 28 23 20 18 17 16 11 8 8 8 11 13 14 16 17 19 22 23 24 24 24 24 22 19 21 17 11
5 6 5 8 5 3 7 9 7 6 6 13 11 11 12 17 17 17 25 32 35 35 31 27 23 19 17 15 12 9 9 10 14 13 18 18 19 20 21 22 24 25 23 22 21 18 18 20 20
4 6 2 3 3 4 4 14 3 6 11 8 9 10 13 14 13 16 23 28 32 37 33 28 24 19 17 16 13 11 11 11 13 16 19 20 19 20 21 23 24 25 25 25 21 18 18 19 25
6 3 4 1 3 3 4 5 4 4 8 16 10 9 10 11 15 17 21 33 34 39 36 30 25 18 15 14 13 12 13 13 16 18 20 21 21 22 24 24 25 25 24 23 22 22 21 23 29
6 4 4 3 2 2 8 9 6 6 9 9 7 6 7 8 11 12 23 27 31 39 37 31 27 18 14 13 12 12 13 14 16 17 18 19 21 24 26 26 26 27 26 25 24 24 25 28 30
2 5 4 5 2 8 4 2 15 6 11 12 11 7 7 7 9 12 15 21 28 35 37 33 29 22 16 13 11 12 13 13 15 17 19 21 23 25 28 28 27 28 27 27 27 28 29 29 30
7 9 6 9 4 15 2 8 10 15 13 7 7 7 6 7 9 13 16 24 29 32 36 34 29 21 16 13 12 11 11 12 14 18 19 21 23 25 27 28 25 26 26 29 29 30 31 31 32
6 6 2 5 2 3 6 14 6 7 10 7 10 7 11 9 10 12 13 24 27 31 35 35 30 21 17 12 9 10 11 12 16 19 21 22 25 25 25 26 27 26 26 28 29 31 32 32 33
5 5 3 2 3 6 12 22 18 10 15 11 11 15 13 7 9 10 12 21 25 30 36 34 30 22 14 10 9 8 10 13 16 19 21 23 26 26 26 26 26 27 28 29 29 32 32 33 34
4 4 2 2 4 6 10 19 5 7 10 11 14 9 10 9 10 12 12 20 25 29 35 34 27 18 13 9 7 8 10 12 15 18 21 23 24 26 25 26 27 28 30 29 30 33 34 35 35
3 11 13 6 8 5 2 25 2 1 7 7 8 8 6 7 10 11 12 19 24 30 32 32 24 18 13 10 7 7 9 11 14 18 20 21 23 25 25 25 27 29 31 30 30 34 34 34 35
Wind_Direction
159 163 140 56 64 66 146 227 219 145 151 316 87 162 152 64 153 170 125 66 83 75 70 67 54 55 62 58 58 66 56 48 43 36 30 21 8 353 338 330 318 316 321 324 323 325 325 324 323
147 153 83 82 90 83 250 236 208 197 141 131 92 95 89 121 141 137 155 65 91 91 85 70 65 61 60 62 68 80 69 38 45 40 33 25 17 15 12 359 341 329 321 320 317 317 315 314 314
144 145 81 94 112 158 187 206 162 101 145 156 111 35 151 159 137 135 126 108 102 106 98 76 63 63 64 63 64 59 59 49 27 15 8 14 18 24 24 14 2 354 344 327 316 310 308 303 306
157 40 45 78 138 209 209 164 149 133 212 144 130 134 114 211 159 149 140 124 111 105 108 89 77 73 72 69 66 67 63 57 45 26 36 29 23 25 26 25 23 12 4 357 337 317 302 301 302
60 58 58 82 241 230 239 173 161 168 167 154 168 181 186 194 150 148 145 132 121 109 98 90 74 70 70 68 67 65 63 58 54 50 40 30 43 27 14 1 7 3 352 347 341 343 317 299 300
46 97 60 232 240 228 249 172 162 169 160 147 129 148 197 173 159 152 144 137 122 107 98 88 81 75 68 66 63 62 60 57 53 47 38 34 21 12 4 353 350 4 354 319 324 338 334 319 296
117 88 200 196 239 225 213 152 180 170 158 220 139 153 224 188 173 158 148 140 126 106 99 89 81 73 72 71 65 60 55 50 45 43 38 36 19 9 356 340 337 335 329 317 316 317 308 300 306
105 90 128 234 208 255 177 124 46 158 199 79 162 198 217 200 174 164 153 141 133 119 103 92 87 82 74 68 65 60 57 52 47 40 33 24 16 13 9 6 1 358 347 336 340 304 303 306 307
136 71 217 233 161 241 158 154 23 23 124 232 203 172 265 169 166 161 155 146 138 128 112 101 91 80 72 67 62 59 55 50 43 35 27 21 17 13 10 8 4 2 355 349 342 336 305 296 299
87 114 217 193 199 259 188 184 172 165 176 242 254 213 157 160 167 169 173 162 155 143 123 106 94 83 76 69 60 55 51 46 39 32 25 20 14 12 8 4 2 0 357 352 343 336 328 319 314
175 174 212 229 216 184 175 220 159 159 231 221 209 166 163 168 177 178 177 173 165 153 140 121 99 88 78 71 62 55 48 40 32 25 19 15 9 7 5 2 1 359 355 351 347 343 339 332 323
165 217 203 278 211 158 205 131 215 198 224 42 211 167 169 180 183 182 179 177 170 163 151 137 125 116 93 76 61 49 40 37 31 23 14 11 7 4 3 4 360 358 355 350 346 340 335 331 327
178 221 226 282 268 242 137 233 234 241 229 174 144 163 180 184 188 193 189 179 170 167 167 166 152 135 105 83 59 44 36 28 24 20 17 11 7 3 2 1 1 356 351 350 344 339 333 326 323
167 274 271 299 259 247 217 282 357 233 141 162 168 186 189 189 186 187 186 181 182 179 177 173 169 152 129 85 52 37 29 21 15 14 10 7 3 359 358 357 357 355 350 346 343 340 331 326 321
123 311 316 232 211 245 165 279 231 213 174 189 199 194 194 201 191 192 188 188 187 184 179 178 173 167 150 117 60 36 10 1 2 1 357 353 354 352 353 352 352 352 346 343 342 340 334 322 320
94 61 12 226 163 223 156 269 264 174 173 220 211 203 202 208 206 201 197 194 188 183 182 182 184 184 182 190 239 309 329 342 343 346 342 342 343 344 345 344 343 344 344 343 337 334 329 324 317
357 250 233 299 203 165 178 268 239 167 209 236 219 213 209 212 211 208 201 194 188 189 186 186 190 195 201 213 248 286 302 319 315 328 330 331 334 334 335 337 335 339 340 338 334 327 324 319 319
226 237 247 239 218 208 222 257 274 223 216 242 227 215 211 215 215 204 201 196 191 188 189 190 193 200 211 224 251 269 270 286 302 318 316 324 321 318 324 331 334 336 335 333 330 326 322 315 316
170 201 235 251 232 219 245 251 258 272 241 254 242 211 213 221 215 200 200 195 191 189 188 190 192 198 208 216 237 249 253 288 286 307 300 308 311 322 326 328 328 328 328 328 325 319 316 319 319
170 212 259 283 223 194 271 261 263 251 258 255 251 226 223 217 189 192 191 193 193 191 192 189 194 201 208 215 230 253 277 290 289 290 294 305 311 321 322 321 321 322 321 321 316 316 317 313 326
206 194 231 237 333 249 301 265 236 286 251 267 239 226 212 211 202 193 190 192 193 194 192 193 195 200 206 211 226 246 268 272 282 288 297 306 313 316 315 317 317 316 313 311 306 301 306 304 301
229 209 222 288 16 257 18 294 215 242 273 257 246 208 222 206 203 196 192 191 193 195 197 197 196 198 202 207 220 239 250 264 284 288 295 301 308 313 316 316 314 309 307 305 297 297 294 291 281
225 127 141 124 216 12 244 267 225 12 272 264 264 225 219 205 197 196 194 196 193 195 197 198 198 200 201 210 226 241 254 271 281 288 296 304 311 317 319 316 311 306 302 297 292 291 286 276 272
135 97 70 65 105 259 226 202 168 184 210 255 258 234 222 199 201 199 196 193 191 195 198 197 197 199 205 215 226 242 257 271 283 295 296 304 314 317 316 316 310 304 299 296 293 289 276 275 272
105 71 324 315 338 247 135 238 257 234 228 220 231 231 220 213 194 187 184 189 191 191 195 196 196 197 204 217 234 246 260 274 290 300 305 312 316 317 317 316 311 304 298 293 289 285 279 277 269
174 167 170 242 239 286 55 243 272 220 239 217 251 259 245 220 200 200 197 193 194 189 191 195 197 198 206 219 235 256 272 286 296 306 310 308 313 314 317 313 300 292 289 285 284 281 278 277 272
182 190 170 98 137 309 243 264 281 225 253 246 241 231 244 225 204 207 199 199 193 187 192 195 197 199 206 220 246 270 290 304 309 313 315 319 322 316 307 301 296 293 290 287 286 281 279 279 276
176 157 84 4 257 253 267 274 272 217 236 232 244 228 235 221 204 205 202 197 196 190 191 198 199 200 199 213 238 269 293 306 315 319 323 322 314 312 307 303 300 298 295 292 288 281 280 279 275
142 198 192 169 164 200 268 269 194 204 202 212 236 225 213 215 208 208 202 197 194 188 190 193 191 189 196 211 237 270 295 311 322 320 318 314 311 310 307 304 301 300 296 293 291 286 284 279 278
184 197 179 197 230 240 215 268 60 220 193 219 246 224 214 216 212 203 194 188 186 188 188 186 184 186 194 205 231 269 302 317 321 315 315 312 310 308 307 302 301 301 297 298 294 290 287 284 281